Location: Ulm
(48.3980°N, 9.9777°E)
Time: 13:38:53
(UTC+01:00)

N. Korean satellite - Visible Passes

Search period start: 22 November 2017 00:00
Search period end: 02 December 2017 00:00
Orbit: 460 x 514 km, 97.2° (Epoch: 21 November)

Date Brightness Start Highest point End Pass type
(mag) Time Alt. Az. Time Alt. Az. Time Alt. Az.
22 Nov 9.7 06:19:06 10° NE 06:21:52 19° E 06:24:38 10° SE visible
22 Nov 7.3 18:31:35 10° S 18:35:02 53° W 18:38:35 10° NNW visible
23 Nov 10.3 05:57:05 10° ENE 05:58:09 11° E 05:59:14 10° ESE visible
23 Nov 6.4 18:08:00 10° SSE 18:11:32 79° ENE 18:15:09 10° N visible
24 Nov 7.3 07:04:53 10° NNE 07:08:38 64° ESE 07:12:21 10° S visible
24 Nov 6.9 17:44:45 10° SE 17:48:06 41° ENE 17:51:32 10° N visible
24 Nov 9.6 19:19:36 10° SW 19:21:51 16° W 19:24:08 10° NW visible
25 Nov 8.6 06:41:36 10° NNE 06:45:04 34° E 06:48:31 10° SSE visible
25 Nov 7.7 17:21:52 10° ESE 17:24:45 23° ENE 17:27:40 10° NNE visible
25 Nov 8.7 18:55:02 10° SSW 18:58:09 28° W 19:01:21 10° NW visible
26 Nov 9.7 06:18:38 10° NE 06:21:25 19° E 06:24:11 10° SE visible
26 Nov 7.3 18:31:04 10° S 18:34:34 53° W 18:38:08 10° NNW visible
27 Nov 10.3 05:56:36 10° ENE 05:57:41 11° E 05:58:46 10° ESE visible
27 Nov 6.4 18:07:28 10° SSE 18:11:01 79° ENE 18:14:41 10° N visible
28 Nov 7.3 07:04:23 10° NNE 07:08:08 63° E 07:11:52 10° S visible
28 Nov 6.9 17:44:12 10° SE 17:47:35 41° ENE 17:51:03 10° N visible
28 Nov 9.6 19:19:00 10° SW 19:21:19 16° W 19:23:40 10° NW visible
29 Nov 8.6 06:41:05 10° NNE 06:44:34 34° E 06:48:00 10° SSE visible
29 Nov 7.7 17:21:18 10° ESE 17:24:13 23° ENE 17:27:10 10° NNE visible
29 Nov 8.6 18:54:27 10° SSW 18:57:37 29° W 19:00:51 10° NNW visible
30 Nov 9.7 06:18:06 10° NE 06:20:53 19° E 06:23:39 10° SE visible
30 Nov 8.3 16:58:56 10° E 17:00:54 14° ENE 17:02:54 10° NNE visible
30 Nov 7.3 18:30:28 10° S 18:33:59 54° W 18:37:37 10° NNW visible
01 Dec 10.2 05:56:05 10° ENE 05:57:08 11° E 05:58:10 10° ESE visible
01 Dec 6.4 18:06:51 10° SSE 18:10:27 78° ENE 18:14:08 10° N visible
